Presure
316 277 250 236 223 200 231 209 187 213 207 198 185 180 178 186 180 176 171 184 184 185 185 188 183 184 184 186 187 187 183 189 187 182 177 172 170 169 168 171 173 179 177 187
295 298 272 234 222 222 222 198 224 189 204 215 203 160 168 178 188 186 179 178 176 174 163 167 170 173 177 180 181 183 190 191 180 177 173 173 171 172 172 179 180 187 198 206
275 297 278 265 238 225 219 219 200 224 186 203 212 201 186 181 187 182 185 192 191 180 176 170 169 172 174 173 171 172 176 175 172 173 177 181 180 179 177 184 200 205 213 206
260 289 290 269 240 228 225 225 223 204 204 183 205 219 210 180 181 221 221 198 196 190 193 196 206 206 169 172 171 168 177 178 171 180 180 186 194 204 209 207 206 215 203 209
275 268 297 286 272 243 224 221 223 222 219 197 191 184 207 183 215 179 174 220 222 222 216 226 199 184 208 227 225 182 184 188 183 177 183 213 214 206 203 211 209 201 206 208
263 269 275 289 261 265 239 224 215 219 214 212 216 201 193 202 197 212 221 182 195 206 206 210 221 215 221 217 215 178 188 184 203 213 216 212 209 217 216 210 209 205 204 208
264 259 271 275 279 285 266 233 224 220 216 213 210 204 208 205 187 186 216 161 216 202 205 227 180 218 217 219 221 223 223 221 216 212 211 214 211 212 199 202 207 203 207 205
266 280 290 282 284 279 278 258 232 223 217 213 213 210 208 217 216 203 197 205 207 211 182 223 222 215 218 212 209 210 184 194 197 215 210 205 210 208 211 214 214 215 212 214
282 281 285 273 270 267 257 273 260 237 220 215 215 213 218 218 223 219 217 224 208 228 209 206 201 214 194 193 195 201 205 210 213 217 208 222 225 228 224 216 219 225 223 219
265 268 270 274 269 269 272 262 248 256 255 240 228 220 220 222 223 147 227 205 231 228 220 218 216 212 214 215 138 219 226 230 230 175 240 240 249 253 249 250 247 194 259 209
285 268 266 259 256 246 264 257 249 255 250 257 258 251 238 231 231 223 224 227 186 229 231 226 225 228 228 226 246 261 271 267 266 269 227 267 272 275 278 281 161 274 280 183
281 262 254 268 254 262 253 256 255 250 258 256 253 251 249 248 247 246 237 229 231 240 258 268 270 265 258 258 259 252 270 274 283 102 294 288 284 287 288 286 287 286 279 275
282 275 268 269 256 259 253 253 257 255 252 254 254 256 258 257 260 263 260 257 253 253 254 248 252 253 255 263 277 276 283 271 274 296 297 320 348 430 432 340 302 289 279 283
272 281 280 273 261 260 265 261 255 246 243 244 253 256 255 251 250 248 247 246 248 249 256 253 249 274 277 275 257 255 267 280 314 351 370 405 374 400 390 406 431 362 312 294
259 259 278 275 270 275 264 256 256 252 247 254 254 248 241 256 254 252 252 252 245 245 243 268 275 255 259 249 265 270 282 374 355 352 389 360 339 342 351 363 380 405 365 325
251 255 258 265 269 269 265 257 249 261 259 251 258 237 232 232 240 243 239 246 266 259 278 250 253 244 243 256 260 265 264 328 293 304 306 305 313 321 328 330 330 335 350 391
267 258 248 255 262 263 262 261 263 265 268 270 262 254 253 239 246 253 255 267 268 243 246 243 244 249 248 260 246 267 259 238 302 276 284 311 313 302 292 293 297 296 338 344
283 282 267 252 255 254 263 266 261 257 257 257 260 259 251 248 264 271 257 246 239 250 237 236 240 238 258 248 238 249 264 246 227 227 272 278 277 280 281 280 279 277 291 308
289 285 271 271 272 268 257 256 258 272 285 291 292 278 267 256 246 238 238 223 248 234 225 228 230 238 244 246 234 252 239 232 229 231 222 233 241 217 266 270 267 267 270 265
262 268 277 285 288 290 291 289 276 262 252 246 237 232 237 241 231 219 221 243 243 225 225 227 231 244 249 227 249 228 248 238 217 221 224 229 225 225 229 221 222 215 225 236
244 239 239 236 232 229 226 228 229 241 263 257 242 234 217 217 226 231 236 205 235 241 236 224 241 243 249 238 249 231 239 246 249 236 232 235 249 230 220 225 241 243 244 244
235 229 224 227 243 264 281 266 239 221 223 215 216 222 235 233 236 236 228 230 188 238 235 234 229 232 242 250 241 236 235 237 234 214 241 235 232 235 242 238 243 234 229 228
225 279 276 282 227 214 210 225 223 217 222 231 243 244 230 237 240 222 235 231 236 226 239 239 245 219 242 210 206 207 197 198 245 240 211 207 207 215 221 213 217 208 207 211
286 219 214 210 221 225 225 226 216 246 251 249 236 231 236 241 234 240 221 212 236 241 249 231 235 216 212 205 201 202 213 220 263 233 228 224 221 219 220 217 215 212 211 208
214 211 216 216 234 228 222 212 252 246 245 237 237 236 236 237 242 212 233 223 234 237 241 238 229 225 212 204 204 213 218 225 225 222 214 217 221 222 204 197 199 199 221 231
220 216 219 215 219 230 219 216 248 252 221 244 212 242 223 241 243 246 223 220 234 230 244 219 217 222 225 229 224 228 222 225 229 231 226 224 201 196 220 216 203 209 229 228
Wind_Speed
87 109 112 117 115 103 111 111 102 112 112 110 99 99 99 105 106 102 93 102 101 101 99 99 97 98 99 101 102 104 103 103 102 99 95 93 93 91 92 95 97 102 99 103
83 92 101 117 116 112 109 102 109 101 104 108 108 79 89 96 105 103 95 96 94 93 83 90 91 93 95 95 95 97 100 100 97 94 93 95 95 99 99 103 102 107 108 103
80 76 96 106 116 116 106 106 103 105 96 100 104 103 106 98 102 94 99 107 108 100 95 88 89 90 90 90 89 92 96 96 94 92 93 97 99 101 101 108 110 103 96 97
87 73 86 101 113 114 115 109 105 102 99 93 97 98 107 87 87 101 98 111 110 107 108 107 105 104 89 93 92 89 96 98 94 100 100 106 110 108 103 104 105 99 96 96
77 85 72 91 101 113 112 104 104 101 98 97 95 96 102 92 94 85 83 92 92 92 100 89 98 96 106 87 90 97 101 104 101 97 102 106 102 102 103 102 100 97 97 95
78 80 80 75 94 99 113 107 96 98 97 96 95 97 95 95 92 91 90 86 87 87 88 94 92 94 92 90 92 90 96 99 106 104 101 100 99 100 98 99 100 99 98 97
78 80 76 75 75 78 91 108 108 102 95 94 94 94 94 93 86 86 89 56 90 89 84 89 86 92 92 92 92 93 94 97 99 100 101 100 100 100 95 96 98 98 100 99
71 67 69 70 63 62 73 93 104 107 100 95 96 92 92 94 94 87 86 87 89 90 83 90 91 92 91 90 90 92 89 94 95 100 100 99 101 100 100 102 102 102 102 104
58 57 66 68 66 64 70 66 82 106 105 99 93 92 95 93 92 90 90 92 88 92 88 87 85 89 85 87 91 94 96 100 102 102 100 105 107 108 106 103 105 108 107 108
58 56 55 52 56 53 59 74 79 83 89 103 105 102 99 96 91 50 92 80 90 90 90 90 90 90 92 95 54 99 101 104 105 73 112 114 114 117 112 112 109 88 112 87
57 59 61 62 61 63 60 67 69 71 76 74 84 93 105 99 95 93 89 88 66 87 89 88 88 91 95 96 97 91 90 94 96 98 85 104 105 105 106 106 60 107 104 67
45 58 53 58 56 58 58 58 60 62 65 77 82 85 86 88 90 94 92 84 85 90 90 81 75 76 79 80 81 86 86 89 91 30 93 96 99 103 104 102 100 97 93 90
34 49 49 53 51 51 54 54 55 62 68 70 69 70 70 70 70 68 70 73 76 74 73 75 72 73 73 75 75 73 70 73 79 83 88 96 95 62 69 96 106 98 93 88
27 32 42 53 54 49 50 54 59 62 62 61 59 61 64 65 65 64 65 67 68 68 66 67 66 63 59 54 56 62 63 64 73 67 60 49 44 34 33 38 40 79 94 87
28 26 28 36 39 44 52 54 56 57 58 59 55 56 56 51 49 52 56 57 57 59 61 56 47 46 45 50 54 53 54 29 26 32 34 24 24 18 15 21 31 34 59 76
28 28 27 26 32 38 43 47 48 51 56 54 55 52 51 50 49 47 49 52 47 47 40 38 39 43 46 45 43 43 40 28 33 36 26 21 21 17 8 6 8 13 21 24
31 34 28 29 31 32 34 36 36 37 39 41 42 40 42 44 45 46 46 40 34 34 33 33 37 35 37 36 36 37 37 32 24 28 30 23 21 29 23 22 24 25 9 16
27 32 33 30 30 29 31 34 33 34 35 37 38 37 35 36 35 32 29 30 29 27 27 32 31 33 29 28 28 27 27 27 28 31 24 26 28 30 30 28 27 29 28 17
21 24 25 26 28 29 27 28 29 32 30 27 23 26 27 30 29 27 27 29 26 22 28 31 30 30 23 24 25 20 22 22 21 22 24 28 23 15 22 23 25 24 22 19
10 12 16 20 23 24 24 23 21 23 24 26 27 29 28 26 25 28 28 24 24 23 30 31 28 25 22 19 24 24 17 16 19 16 17 19 16 16 16 10 9 9 7 14
16 16 17 18 19 20 22 23 23 23 26 27 25 25 26 29 26 26 22 24 23 25 25 26 22 21 21 16 21 18 16 17 16 17 22 21 20 17 15 15 19 20 20 19
18 19 20 19 18 20 22 23 22 23 24 25 25 24 27 28 28 24 21 21 25 18 22 21 19 17 17 19 16 17 17 17 19 10 17 18 19 18 19 20 21 19 17 15
21 22 22 21 21 21 22 20 20 23 23 24 27 28 28 29 28 21 20 19 19 19 21 20 21 14 17 11 13 13 14 14 15 13 13 15 17 17 17 19 19 21 22 23
23 21 22 21 23 23 22 19 23 22 24 26 24 25 27 29 24 24 19 19 24 21 21 18 18 17 16 15 16 17 17 17 20 14 17 17 18 19 21 23 25 27 29 31
23 23 22 23 21 22 20 18 21 22 22 23 23 24 26 28 27 18 19 20 22 20 20 20 17 19 20 20 22 21 20 18 18 19 21 22 21 21 26 29 31 34 31 31
28 27 26 26 22 19 18 19 20 21 18 22 25 24 22 25 25 26 19 21 24 22 25 18 18 21 21 21 21 20 21 20 19 19 21 22 28 31 28 31 37 39 33 33
Wind_Direction
215 216 215 217 222 222 224 223 229 229 231 232 235 235 239 240 242 244 246 246 247 250 254 255 258 260 261 262 264 266 268 269 269 270 273 274 274 277 277 277 280 281 282 284
214 213 214 216 220 223 223 225 227 231 231 232 233 236 241 241 242 245 248 249 250 252 256 257 258 259 262 264 264 267 269 269 270 272 273 275 276 277 278 279 280 283 285 287
215 214 212 214 219 222 225 225 226 229 231 232 233 235 239 241 244 247 249 251 252 252 254 258 261 262 262 263 265 267 268 271 273 274 275 276 277 278 280 282 282 283 283 287
214 217 210 213 219 220 226 228 229 228 230 233 234 234 238 243 245 246 247 251 253 255 257 258 259 259 263 264 265 268 268 270 274 275 277 278 278 277 278 281 283 281 283 283
209 215 216 210 216 220 224 227 230 231 232 233 234 236 238 243 244 247 249 250 252 254 256 260 261 262 263 264 262 267 268 270 273 276 277 276 277 279 279 280 280 281 282 282
213 218 218 214 217 215 222 227 229 231 233 235 237 238 241 242 244 248 251 252 254 256 258 259 263 263 264 263 264 268 270 272 273 274 274 275 276 277 277 278 279 279 279 281
210 220 221 220 218 219 220 227 231 235 234 235 238 240 243 245 244 248 251 255 256 256 260 260 262 264 265 266 267 268 269 270 272 272 274 274 274 274 275 276 277 279 281 281
215 218 219 223 221 217 217 223 228 231 237 239 239 240 243 246 249 250 252 255 256 257 258 261 262 265 267 271 272 272 268 271 272 271 272 273 273 275 276 275 276 277 278 279
212 217 224 225 224 220 221 215 224 229 232 239 243 245 246 247 250 252 254 255 256 256 263 266 269 269 271 271 271 271 272 273 273 274 275 275 274 273 272 273 274 274 274 275
214 216 216 220 223 219 216 221 227 227 231 234 239 244 247 249 249 250 255 257 259 259 261 263 266 269 269 270 270 272 273 274 275 275 274 273 273 272 272 272 271 275 268 271
209 212 216 220 222 222 220 220 227 233 236 237 238 239 242 248 252 252 254 257 260 262 264 266 268 269 270 271 273 275 277 277 277 277 277 276 276 274 271 269 275 266 265 271
208 217 219 223 222 225 226 226 223 225 227 233 239 242 244 246 249 251 255 259 263 265 268 270 271 271 273 275 277 276 282 281 282 282 279 278 277 276 274 271 268 265 264 264
206 216 218 221 218 218 222 225 226 227 231 236 240 241 243 246 250 253 257 259 262 265 267 269 272 277 279 281 282 284 282 285 285 284 283 281 278 280 268 263 262 263 264 263
200 207 215 220 221 219 222 227 228 230 232 236 238 239 242 247 252 255 257 260 262 264 270 272 275 276 279 286 285 286 291 293 293 292 295 294 292 276 275 267 261 252 256 257
202 207 208 214 216 221 224 228 229 231 234 236 238 241 246 249 250 252 255 259 262 266 270 274 278 284 290 288 292 295 309 322 343 344 324 302 312 323 312 288 269 261 249 254
211 209 208 209 216 222 225 226 227 231 234 237 240 242 245 249 252 255 257 263 264 265 267 278 286 288 286 295 299 312 316 331 338 337 1 35 51 45 20 351 311 285 266 259
208 210 215 214 214 217 221 226 228 230 233 235 239 243 244 248 254 258 259 258 257 268 281 284 289 287 294 296 299 328 332 325 14 13 26 33 69 87 75 71 65 52 7 242
205 211 216 219 219 220 219 223 227 231 235 239 243 244 243 246 244 235 246 254 266 279 287 287 289 288 295 295 307 328 334 337 339 336 33 53 55 55 58 70 68 63 57 61
207 213 216 217 220 223 223 226 228 235 231 225 206 206 208 216 232 243 254 262 274 268 275 285 285 289 291 298 304 324 328 321 340 354 350 2 21 343 61 71 72 68 67 64
201 201 209 212 213 213 212 210 194 190 190 197 209 221 225 228 241 252 259 269 270 265 270 280 284 290 295 284 299 302 320 320 320 339 343 351 351 356 16 356 12 337 34 57
184 178 174 177 179 184 195 200 205 202 190 194 210 222 236 244 250 259 263 264 272 286 268 280 284 289 288 287 295 305 314 323 330 333 330 336 347 346 344 351 13 18 17 16
196 190 197 200 209 211 203 192 199 213 217 229 236 243 240 245 249 253 252 259 270 286 281 275 277 289 290 288 289 298 306 319 323 325 339 336 346 350 358 3 8 7 3 353
202 213 214 213 203 211 216 210 215 227 234 237 231 230 244 249 249 239 256 259 276 264 284 279 281 278 282 288 290 299 304 308 312 322 321 320 320 325 334 327 329 321 319 317
209 205 211 218 213 214 214 217 231 227 223 224 235 244 250 253 249 258 243 255 285 287 298 271 273 278 279 281 287 295 304 312 296 319 318 313 317 321 324 326 325 322 319 315
213 218 221 222 214 217 222 230 230 226 222 228 235 243 250 257 262 243 257 261 277 279 278 272 269 271 279 288 295 295 296 300 303 302 303 305 310 314 316 316 315 315 309 313
213 217 218 224 225 224 231 237 231 227 240 232 236 246 240 255 264 271 248 256 272 268 286 255 265 273 276 277 280 281 285 290 294 293 293 297 307 311 312 312 316 316 311 313